Location: Blanot
(47.1713°N, 4.2340°E)
Time: 04:16:02
(UTC+00:00)

CZ-4 R/B - Pass Details

Date: 14 July 2020
Orbit: 682 x 752 km, 98.5° (Epoch: 06 August)

Event Time Altitude Azimuth Distance (km) Brightness Sun altitude
Rises 00:01:26 0° 16° (NNE) 3,083 8.6 -21.1°
Reaches altitude 10° 00:03:41 10° 19° (NNE) 2,170 7.4 -21.1°
Maximum altitude 00:08:25 68° 103° (ESE) 762 3.9 -21.1°
Enters shadow 00:09:36 49° 165° (SSE) 917 4.0 -21.0°
